Location: Newark
(34.0131°N, 4.3314°W)
Time: 00:35:11
(UTC+00:00)

A-11 Canister half - Visible Passes

Search period start: 20 October 2019 00:00
Search period end: 30 October 2019 00:00
Orbit: 1527 x 1682 km, 47.3° (Epoch: 18 October)

Date Brightness Start Highest point End Pass type
(mag) Time Alt. Az. Time Alt. Az. Time Alt. Az.
20 Oct 10.7 02:09:33 18° ESE 02:09:33 18° ESE 02:11:37 10° ESE visible
20 Oct 9.4 04:07:56 41° SSW 04:07:56 41° SSW 04:15:40 10° SSE visible
20 Oct 8.9 19:11:52 10° SW 19:21:24 79° SE 19:26:52 29° ENE visible
20 Oct 9.8 21:18:06 10° W 21:25:12 41° NW 21:25:12 41° NW visible
21 Oct 9.7 03:48:22 35° S 03:48:22 35° S 03:54:11 10° SSE visible
21 Oct 8.9 18:50:15 10° SW 18:59:47 75° SE 19:06:41 21° ENE visible
21 Oct 9.6 20:56:21 10° W 21:05:01 46° NNW 21:05:01 46° NNW visible
22 Oct 10.2 03:28:46 26° S 03:28:46 26° S 03:32:41 10° SSE visible
22 Oct 9.0 18:28:39 10° SW 18:38:11 72° SE 18:46:27 14° ENE visible
22 Oct 9.5 20:34:36 10° W 20:43:38 48° NNW 20:44:45 46° N visible
22 Oct 11.1 22:42:10 10° WNW 22:43:04 13° WNW 22:43:04 13° WNW visible
23 Oct 10.6 03:09:09 18° SSE 03:09:09 18° SSE 03:11:10 10° SSE visible
23 Oct 9.1 18:07:03 10° SW 18:16:34 69° SE 18:25:51 10° ENE visible
23 Oct 9.5 20:12:51 10° W 20:21:57 49° NNW 20:24:27 41° NNE visible
23 Oct 10.9 22:20:27 10° WNW 22:22:45 18° NW 22:22:45 18° NW visible
24 Oct 11.0 02:49:28 11° SSE 02:49:28 11° SSE 02:49:38 10° SSE visible
24 Oct 9.1 17:45:28 10° SW 17:54:57 65° SE 18:04:13 10° ENE visible
24 Oct 9.5 19:51:06 10° W 20:00:16 51° NNW 20:04:04 34° NNE visible
24 Oct 10.6 21:58:43 10° WNW 22:02:22 23° NW 22:02:22 23° NW visible
25 Oct 9.5 19:29:21 10° W 19:38:36 53° NNW 19:43:39 28° NE visible
25 Oct 10.3 21:37:00 10° WNW 21:41:57 28° NW 21:41:57 28° NW visible
26 Oct 9.5 19:07:36 10° WSW 19:16:55 54° NNW 19:23:12 22° NE visible
26 Oct 10.1 21:15:15 10° WNW 21:21:29 32° NNW 21:21:29 32° NNW visible
27 Oct 9.4 18:45:52 10° WSW 18:55:15 56° NNW 19:02:43 17° NE visible
27 Oct 9.9 20:53:30 10° WNW 21:01:01 35° NNW 21:01:01 35° NNW visible
28 Oct 9.4 18:24:08 10° WSW 18:33:34 58° NNW 18:42:12 12° NE visible
28 Oct 9.8 20:31:45 10° WNW 20:40:16 36° N 20:40:30 36° N visible
28 Oct 11.2 22:38:12 10° NW 22:38:47 12° NW 22:38:47 12° NW visible
29 Oct 9.4 18:02:24 10° WSW 18:11:54 60° NNW 18:21:12 10° NE visible
29 Oct 9.8 20:10:01 10° WNW 20:18:33 36° N 20:19:58 35° NNE visible
29 Oct 10.9 22:16:34 10° NW 22:18:16 16° NW 22:18:16 16° NW visible
